Flag for Brazil Weather past 2 weeks in Sorocaba, São Paulo, Brazil

Now
61 °F

Partly sunny.


Feels Like: 61 °F
Forecast: 52 / 76 °F
Wind: 14 mph from Southeast

Location: Campinas Aeroporto

Current Time: Aug 29, 2014 at 9:55:04 AM

Latest Report: Aug 29, 2014 at 9:00 AM


Visibility: N/A

Pressure: 30.21 "Hg

Humidity: 68%

Dew point: 50 °F

Location of SorocabaLocation

Historic Weather in Sorocaba — Graph

°F

Sorocaba temperature yesterday

Maximum temperature yesterday: 77 °F (at 3:00 PM)
Minimum temperature yesterday: 54 °F (at 7:00 AM)
Average temperature yesterday: 63 °F

Past Weeks' High & Low Weather Summary

 TemperatureHumidityPressure
High90 °F (Aug 25, 3:00 PM)94% (Aug 17, 3:00 AM)30.36 "Hg (Aug 17, 3:00 AM)
Low54 °F (Aug 28, 7:00 AM)13% (Aug 24, 3:00 PM)29.92 "Hg (Aug 25, 3:00 PM)
Average68 °F58%30.14 "Hg
* Reported Aug 14 8:00 AM — Aug 29 8:00 AM, Sorocaba, Weather by CustomWeather, © 2014

Note: Actual official high and low records may vary slightly from our data, if they occured in-between our weather recording intervals... More about our weather records

Advertising

Sorocaba weather history for previous 24 hours

 ConditionsComfort  
Time TempWeatherWind HumidityBarometerVisibility
8:00 AM
Aug 29
59 °FSunny.14 mph72%30.15 "Hg10 mi
7:00 AM57 °FPassing clouds.13 mph77%30.15 "HgN/A
6:00 AM55 °FPassing clouds.15 mph82%30.12 "HgN/A
5:00 AM55 °FPassing clouds.17 mph82%30.12 "HgN/A
4:00 AM55 °FPassing clouds.15 mph82%30.12 "HgN/A
3:00 AM55 °FClear.16 mph82%30.12 "Hg10 mi
2:00 AM55 °FClear.17 mph82%30.12 "Hg10 mi
1:00 AM55 °FClear.17 mph82%30.12 "Hg10 mi
12:00 AM57 °FClear.18 mph82%30.12 "Hg10 mi
11:00 PM
Aug 28
57 °FClear.16 mph82%30.15 "Hg10 mi
10:00 PM57 °FClear.22 mph77%30.15 "Hg10 mi
9:00 PM59 °FClear.21 mph77%30.12 "Hg6 mi
8:00 PM59 °FClear.21 mph77%30.09 "Hg10 mi
7:00 PM61 °FClear.20 mph72%30.09 "Hg5 mi
6:00 PM66 °FClear.21 mph60%30.07 "Hg4 mi
5:00 PM77 °FClear.9 mph30%30.04 "Hg10 mi
4:00 PM77 °FSunny.8 mph28%30.04 "Hg10 mi
3:00 PM77 °FPassing clouds.7 mph30%30.04 "HgN/A
2:00 PM75 °FSunny.5 mph31%30.07 "Hg10 mi
1:00 PM73 °FSunny.8 mph36%30.07 "Hg10 mi
12:00 PM70 °FSunny.12 mph43%30.09 "Hg10 mi
11:00 AM66 °FSunny.13 mph49%30.12 "Hg10 mi
10:00 AM63 °FSunny.16 mph56%30.12 "Hg10 mi
9:00 AM61 °FSunny.18 mph63%30.12 "Hg10 mi
Weather by CustomWeather, © 2014

See weather overviewHow to use our weather pages